Time,TemperatureF,DewpointF,PressureIn,WindDirection,WindDirectionDegrees,WindSpeedMPH,WindSpeedGustMPH,Humidity,HourlyPrecipIn,Conditions,Clouds,dailyrainin,SoftwareType,DateUTC
2013-05-16 00:00:00,67.4,54.8,30.05,South,175,2.0,4.0,64,0.00,,,0.00,WeatherTracker,2013-05-16 05:00:00,
2013-05-16 00:05:00,67.2,55.0,30.05,SSE,158,1.0,4.0,65,0.00,,,0.00,WeatherTracker,2013-05-16 05:05:00,
2013-05-16 00:15:00,66.9,54.7,30.05,SSW,196,1.0,4.0,65,0.00,,,0.00,WeatherTracker,2013-05-16 05:15:00,
2013-05-16 00:20:00,66.9,55.2,30.05,SSW,193,3.0,4.0,66,0.00,,,0.00,WeatherTracker,2013-05-16 05:20:00,
2013-05-16 00:25:00,66.8,55.1,30.05,South,186,2.0,4.0,66,0.00,,,0.00,WeatherTracker,2013-05-16 05:25:00,
2013-05-16 00:30:00,66.8,55.1,30.05,SW,216,2.0,4.0,66,0.00,,,0.00,WeatherTracker,2013-05-16 05:30:00,
2013-05-16 00:35:00,66.7,55.0,30.05,SSW,204,3.0,4.0,66,0.00,,,0.00,WeatherTracker,2013-05-16 05:35:00,
2013-05-16 00:45:00,66.7,55.0,30.05,SSW,194,0.0,4.0,66,0.00,,,0.00,WeatherTracker,2013-05-16 05:45:00,
2013-05-16 00:50:00,66.6,54.9,30.05,SSW,196,2.0,4.0,66,0.00,,,0.00,WeatherTracker,2013-05-16 05:50:00,
2013-05-16 01:00:00,66.5,55.2,30.04,SW,229,0.0,4.0,67,0.00,,,0.00,WeatherTracker,2013-05-16 06:00:00,
2013-05-16 01:10:00,66.4,55.1,30.03,SW,229,0.0,2.0,67,0.00,,,0.00,WeatherTracker,2013-05-16 06:10:00,
2013-05-16 01:15:00,66.3,55.0,30.03,SW,229,0.0,2.0,67,0.00,,,0.00,WeatherTracker,2013-05-16 06:15:00,
2013-05-16 01:25:00,66.2,56.1,30.03,SW,228,0.0,2.0,70,0.00,,,0.00,WeatherTracker,2013-05-16 06:25:00,
2013-05-16 01:35:00,65.9,55.8,30.03,SW,228,0.0,2.0,70,0.00,,,0.00,WeatherTracker,2013-05-16 06:35:00,
2013-05-16 01:40:00,65.8,55.7,30.03,SW,228,0.0,0.0,70,0.00,,,0.00,WeatherTracker,2013-05-16 06:40:00,
2013-05-16 01:45:00,65.6,55.9,30.03,SW,228,0.0,0.0,71,0.00,,,0.00,WeatherTracker,2013-05-16 06:45:00,
2013-05-16 01:55:00,65.4,56.9,30.02,SW,228,0.0,0.0,74,0.00,,,0.00,WeatherTracker,2013-05-16 06:55:00,
2013-05-16 02:05:00,65.2,57.4,30.02,SW,228,0.0,0.0,76,0.00,,,0.00,WeatherTracker,2013-05-16 07:05:00,
2013-05-16 02:10:00,65.0,57.2,30.03,SW,228,0.0,0.0,76,0.00,,,0.00,WeatherTracker,2013-05-16 07:10:00,
2013-05-16 02:20:00,64.8,57.8,30.02,SW,228,0.0,0.0,78,0.00,,,0.00,WeatherTracker,2013-05-16 07:20:00,
2013-05-16 02:30:00,64.5,57.5,30.02,SW,228,0.0,0.0,78,0.00,,,0.00,WeatherTracker,2013-05-16 07:30:00,
2013-05-16 02:40:00,64.0,57.4,30.03,NW,312,0.0,3.0,79,0.00,,,0.00,WeatherTracker,2013-05-16 07:40:00,
2013-05-16 02:50:00,63.8,57.5,30.03,NW,312,0.0,0.0,80,0.00,,,0.00,WeatherTracker,2013-05-16 07:50:00,
2013-05-16 02:55:00,63.6,57.3,30.03,NW,312,0.0,0.0,80,0.00,,,0.00,WeatherTracker,2013-05-16 07:55:00,
2013-05-16 03:00:00,63.5,56.9,30.03,NW,312,0.0,0.0,79,0.00,,,0.00,WeatherTracker,2013-05-16 08:00:00,
2013-05-16 03:05:00,63.4,56.4,30.03,NW,312,0.0,0.0,78,0.00,,,0.00,WeatherTracker,2013-05-16 08:05:00,
2013-05-16 03:10:00,63.3,56.3,30.03,NW,312,0.0,0.0,78,0.00,,,0.00,WeatherTracker,2013-05-16 08:10:00,
2013-05-16 03:20:00,63.1,56.5,30.02,NW,312,0.0,0.0,79,0.00,,,0.00,WeatherTracker,2013-05-16 08:20:00,
2013-05-16 03:30:00,62.8,56.5,30.02,NW,312,0.0,0.0,80,0.00,,,0.00,WeatherTracker,2013-05-16 08:30:00,
2013-05-16 03:40:00,62.5,55.9,30.03,SSW,213,0.0,0.0,79,0.00,,,0.00,WeatherTracker,2013-05-16 08:40:00,
2013-05-16 03:45:00,62.4,56.1,30.03,SSW,213,0.0,0.0,80,0.00,,,0.00,WeatherTracker,2013-05-16 08:45:00,
2013-05-16 03:55:00,62.3,56.7,30.04,WNW,300,2.0,4.0,82,0.00,,,0.00,WeatherTracker,2013-05-16 08:55:00,
2013-05-16 04:00:00,62.2,56.3,30.04,NW,314,2.0,5.0,81,0.00,,,0.00,WeatherTracker,2013-05-16 09:00:00,
2013-05-16 04:05:00,62.2,56.6,30.04,NW,314,0.0,5.0,82,0.00,,,0.00,WeatherTracker,2013-05-16 09:05:00,
2013-05-16 04:10:00,62.1,56.2,30.04,NW,314,0.0,2.0,81,0.00,,,0.00,WeatherTracker,2013-05-16 09:10:00,
2013-05-16 04:15:00,62.1,56.2,30.04,NW,314,0.0,0.0,81,0.00,,,0.00,WeatherTracker,2013-05-16 09:15:00,
2013-05-16 04:20:00,62.1,56.9,30.04,NW,314,0.0,0.0,83,0.00,,,0.00,WeatherTracker,2013-05-16 09:20:00,
2013-05-16 04:30:00,61.9,56.7,30.05,NW,314,0.0,0.0,83,0.00,,,0.00,WeatherTracker,2013-05-16 09:30:00,
2013-05-16 04:35:00,61.8,56.6,30.05,NW,314,0.0,0.0,83,0.00,,,0.00,WeatherTracker,2013-05-16 09:35:00,
2013-05-16 04:45:00,61.5,56.9,30.05,NW,314,0.0,2.0,85,0.00,,,0.00,WeatherTracker,2013-05-16 09:45:00,
2013-05-16 04:50:00,61.3,56.7,30.06,NW,314,0.0,3.0,85,0.00,,,0.00,WeatherTracker,2013-05-16 09:50:00,
2013-05-16 05:00:00,61.1,56.2,30.06,NW,314,0.0,2.0,84,0.00,,,0.00,WeatherTracker,2013-05-16 10:00:00,
2013-05-16 05:10:00,61.2,56.3,30.06,NW,314,0.0,0.0,84,0.00,,,0.00,WeatherTracker,2013-05-16 10:10:00,
2013-05-16 05:15:00,61.2,56.3,30.06,NW,314,0.0,0.0,84,0.00,,,0.00,WeatherTracker,2013-05-16 10:15:00,
2013-05-16 05:20:00,61.2,56.3,30.05,NW,314,0.0,0.0,84,0.00,,,0.00,WeatherTracker,2013-05-16 10:20:00,
2013-05-16 05:25:00,61.1,56.2,30.05,NW,314,0.0,2.0,84,0.00,,,0.00,WeatherTracker,2013-05-16 10:25:00,
2013-05-16 05:30:00,61.0,56.1,30.05,NW,314,0.0,2.0,84,0.00,,,0.00,WeatherTracker,2013-05-16 10:30:00,
2013-05-16 05:40:00,60.8,56.3,30.06,NW,314,0.0,0.0,85,0.00,,,0.00,WeatherTracker,2013-05-16 10:40:00,
2013-05-16 05:50:00,60.6,56.4,30.05,NW,314,0.0,0.0,86,0.00,,,0.00,WeatherTracker,2013-05-16 10:50:00,
2013-05-16 06:00:00,60.4,56.5,30.06,South,170,0.0,1.0,87,0.00,,,0.00,WeatherTracker,2013-05-16 11:00:00,
2013-05-16 06:05:00,60.3,56.4,30.06,South,170,0.0,1.0,87,0.00,,,0.00,WeatherTracker,2013-05-16 11:05:00,
2013-05-16 06:15:00,60.1,56.5,30.06,South,170,0.0,0.0,88,0.00,,,0.00,WeatherTracker,2013-05-16 11:15:00,
2013-05-16 06:20:00,60.0,56.4,30.06,SSW,208,1.0,1.0,88,0.00,,,0.00,WeatherTracker,2013-05-16 11:20:00,
2013-05-16 06:30:00,60.0,56.7,30.07,SSW,208,0.0,3.0,89,0.00,,,0.00,WeatherTracker,2013-05-16 11:30:00,
2013-05-16 06:35:00,60.1,56.8,30.07,SSW,208,0.0,0.0,89,0.00,,,0.00,WeatherTracker,2013-05-16 11:35:00,
2013-05-16 06:40:00,60.2,56.9,30.07,SSW,208,0.0,0.0,89,0.00,,,0.00,WeatherTracker,2013-05-16 11:40:00,
2013-05-16 06:50:00,60.4,57.1,30.07,North,5,0.0,1.0,89,0.00,,,0.00,WeatherTracker,2013-05-16 11:50:00,
2013-05-16 06:55:00,60.6,57.6,30.07,SE,144,0.0,1.0,90,0.00,,,0.00,WeatherTracker,2013-05-16 11:55:00,
2013-05-16 07:00:00,60.8,57.8,30.07,SSW,198,0.0,1.0,90,0.00,,,0.00,WeatherTracker,2013-05-16 12:00:00,
2013-05-16 07:05:00,61.0,58.0,30.08,SSW,198,0.0,0.0,90,0.00,,,0.00,WeatherTracker,2013-05-16 12:05:00,
2013-05-16 07:10:00,61.1,58.8,30.08,SSW,198,0.0,0.0,92,0.00,,,0.00,WeatherTracker,2013-05-16 12:10:00,
2013-05-16 07:15:00,61.4,58.7,30.08,SSW,198,0.0,0.0,91,0.00,,,0.00,WeatherTracker,2013-05-16 12:15:00,
2013-05-16 07:25:00,62.1,59.4,30.07,SW,229,0.0,0.0,91,0.00,,,0.00,WeatherTracker,2013-05-16 12:25:00,
2013-05-16 07:30:00,62.5,59.5,30.07,SE,140,1.0,0.0,90,0.00,,,0.00,WeatherTracker,2013-05-16 12:30:00,
2013-05-16 07:40:00,64.3,60.7,30.08,NNE,14,0.0,2.0,88,0.00,,,0.00,WeatherTracker,2013-05-16 12:40:00,
2013-05-16 07:45:00,65.8,61.2,30.07,NNE,22,0.0,1.0,85,0.00,,,0.00,WeatherTracker,2013-05-16 12:45:00,
2013-05-16 07:55:00,67.7,61.3,30.07,NE,54,0.0,0.0,80,0.00,,,0.00,WeatherTracker,2013-05-16 12:55:00,
2013-05-16 08:00:00,67.9,61.5,30.08,West,277,1.0,3.0,80,0.00,,,0.00,WeatherTracker,2013-05-16 13:00:00,
2013-05-16 08:10:00,67.7,61.3,30.07,SE,143,1.0,5.0,80,0.00,,,0.00,WeatherTracker,2013-05-16 13:10:00,
2013-05-16 08:20:00,67.7,61.7,30.07,SSE,156,0.0,5.0,81,0.00,,,0.00,WeatherTracker,2013-05-16 13:20:00,
2013-05-16 08:25:00,67.8,61.7,30.07,SSE,152,2.0,5.0,81,0.00,,,0.00,WeatherTracker,2013-05-16 13:25:00,
2013-05-16 08:35:00,68.6,62.9,30.07,SE,126,1.0,5.0,82,0.00,,,0.00,WeatherTracker,2013-05-16 13:35:00,
2013-05-16 08:40:00,69.7,64.0,30.06,South,171,2.0,6.0,82,0.00,,,0.00,WeatherTracker,2013-05-16 13:40:00,
2013-05-16 08:50:00,70.5,64.4,30.07,SE,141,8.0,8.0,81,0.00,,,0.00,WeatherTracker,2013-05-16 13:50:00,
2013-05-16 08:55:00,70.6,64.5,30.07,ESE,123,4.0,8.0,81,0.00,,,0.00,WeatherTracker,2013-05-16 13:55:00,
2013-05-16 09:00:00,71.1,65.3,30.06,SSE,150,1.0,8.0,82,0.00,,,0.00,WeatherTracker,2013-05-16 14:00:00,
2013-05-16 09:05:00,71.4,65.3,30.06,SSE,158,8.0,8.0,81,0.00,,,0.00,WeatherTracker,2013-05-16 14:05:00,
2013-05-16 09:10:00,71.1,65.0,30.06,SSE,159,0.0,9.0,81,0.00,,,0.00,WeatherTracker,2013-05-16 14:10:00,
2013-05-16 09:20:00,70.8,65.4,30.07,South,175,1.0,5.0,83,0.00,,,0.00,WeatherTracker,2013-05-16 14:20:00,
2013-05-16 09:25:00,70.7,65.3,30.07,South,169,2.0,5.0,83,0.00,,,0.00,WeatherTracker,2013-05-16 14:25:00,
2013-05-16 09:35:00,70.8,65.7,30.07,South,170,4.0,6.0,84,0.00,,,0.00,WeatherTracker,2013-05-16 14:35:00,
2013-05-16 09:40:00,71.0,65.9,30.08,WNW,296,2.0,5.0,84,0.00,,,0.00,WeatherTracker,2013-05-16 14:40:00,
2013-05-16 09:50:00,71.5,66.4,30.08,SSW,192,1.0,4.0,84,0.00,,,0.00,WeatherTracker,2013-05-16 14:50:00,
2013-05-16 09:55:00,71.7,66.3,30.07,SSE,151,0.0,5.0,83,0.00,,,0.00,WeatherTracker,2013-05-16 14:55:00,
2013-05-16 10:05:00,72.4,66.6,30.08,SW,227,0.0,4.0,82,0.00,,,0.00,WeatherTracker,2013-05-16 15:05:00,
2013-05-16 10:10:00,72.7,66.9,30.08,ESE,118,1.0,2.0,82,0.00,,,0.00,WeatherTracker,2013-05-16 15:10:00,
2013-05-16 10:20:00,73.5,67.3,30.08,ESE,118,0.0,2.0,81,0.00,,,0.00,WeatherTracker,2013-05-16 15:20:00,
2013-05-16 10:25:00,74.1,67.5,30.08,ESE,118,0.0,2.0,80,0.00,,,0.00,WeatherTracker,2013-05-16 15:25:00,
2013-05-16 10:35:00,74.8,67.1,30.07,SSE,161,4.0,4.0,77,0.00,,,0.00,WeatherTracker,2013-05-16 15:35:00,
2013-05-16 10:40:00,75.6,68.2,30.07,NNE,30,0.0,4.0,78,0.00,,,0.00,WeatherTracker,2013-05-16 15:40:00,
2013-05-16 10:45:00,76.4,67.9,30.07,East,93,0.0,6.0,75,0.00,,,0.00,WeatherTracker,2013-05-16 15:45:00,
2013-05-16 10:50:00,76.2,67.3,30.07,SSW,204,1.0,6.0,74,0.00,,,0.00,WeatherTracker,2013-05-16 15:50:00,
2013-05-16 11:00:00,76.1,68.0,30.07,East,99,0.0,3.0,76,0.00,,,0.00,WeatherTracker,2013-05-16 16:00:00,
2013-05-16 11:05:00,76.4,67.5,30.06,NE,49,3.0,6.0,74,0.00,,,0.00,WeatherTracker,2013-05-16 16:05:00,
2013-05-16 11:10:00,76.7,66.6,30.06,WNW,299,1.0,6.0,71,0.00,,,0.00,WeatherTracker,2013-05-16 16:10:00,
2013-05-16 11:20:00,78.5,67.9,30.06,WSW,246,4.0,7.0,70,0.00,,,0.00,WeatherTracker,2013-05-16 16:20:00,
2013-05-16 11:30:00,78.9,66.6,30.06,SSE,160,2.0,9.0,66,0.00,,,0.00,WeatherTracker,2013-05-16 16:30:00,
2013-05-16 11:35:00,78.5,65.7,30.06,SW,217,5.0,8.0,65,0.00,,,0.00,WeatherTracker,2013-05-16 16:35:00,
2013-05-16 11:45:00,78.2,64.6,30.06,SSW,192,5.0,10.0,63,0.00,,,0.00,WeatherTracker,2013-05-16 16:45:00,
2013-05-16 11:55:00,78.2,65.0,30.06,West,259,5.0,10.0,64,0.00,,,0.00,WeatherTracker,2013-05-16 16:55:00,
2013-05-16 12:05:00,79.8,64.2,30.06,SW,233,5.0,9.0,59,0.00,,,0.00,WeatherTracker,2013-05-16 17:05:00,
2013-05-16 12:15:00,79.4,65.7,30.05,SSW,193,3.0,8.0,63,0.00,,,0.00,WeatherTracker,2013-05-16 17:15:00,
2013-05-16 12:20:00,79.5,66.2,30.05,SSW,201,5.0,8.0,64,0.00,,,0.00,WeatherTracker,2013-05-16 17:20:00,
2013-05-16 12:25:00,80.6,66.8,30.05,South,173,2.0,10.0,63,0.00,,,0.00,WeatherTracker,2013-05-16 17:25:00,
2013-05-16 12:30:00,80.7,65.5,30.05,WSW,240,6.0,12.0,60,0.00,,,0.00,WeatherTracker,2013-05-16 17:30:00,
2013-05-16 12:40:00,81.2,64.5,30.05,SSW,200,5.0,10.0,57,0.00,,,0.00,WeatherTracker,2013-05-16 17:40:00,
2013-05-16 12:45:00,81.4,65.7,30.05,SSW,212,8.0,10.0,59,0.00,,,0.00,WeatherTracker,2013-05-16 17:45:00,
2013-05-16 12:50:00,81.5,65.8,30.05,SW,226,8.0,10.0,59,0.00,,,0.00,WeatherTracker,2013-05-16 17:50:00,
2013-05-16 13:00:00,82.0,64.2,30.05,SW,232,8.0,12.0,55,0.00,,,0.00,WeatherTracker,2013-05-16 18:00:00,
2013-05-16 13:05:00,81.8,63.5,30.05,SSW,206,7.0,14.0,54,0.00,,,0.00,WeatherTracker,2013-05-16 18:05:00,
2013-05-16 13:10:00,81.3,65.1,30.05,South,178,5.0,14.0,58,0.00,,,0.00,WeatherTracker,2013-05-16 18:10:00,
2013-05-16 13:20:00,81.3,63.6,30.05,SW,229,4.0,14.0,55,0.00,,,0.00,WeatherTracker,2013-05-16 18:20:00,
2013-05-16 13:25:00,81.3,63.6,30.05,SW,228,4.0,9.0,55,0.00,,,0.00,WeatherTracker,2013-05-16 18:25:00,
2013-05-16 13:35:00,81.9,64.1,30.04,NW,305,4.0,9.0,55,0.00,,,0.00,WeatherTracker,2013-05-16 18:35:00,
2013-05-16 13:40:00,81.9,64.6,30.04,West,260,3.0,8.0,56,0.00,,,0.00,WeatherTracker,2013-05-16 18:40:00,
2013-05-16 13:50:00,83.1,64.2,30.04,WNW,302,4.0,13.0,53,0.00,,,0.00,WeatherTracker,2013-05-16 18:50:00,
2013-05-16 13:55:00,83.3,64.4,30.04,WSW,242,0.0,13.0,53,0.00,,,0.00,WeatherTracker,2013-05-16 18:55:00,
2013-05-16 14:00:00,83.2,63.7,30.03,West,266,3.0,8.0,52,0.00,,,0.00,WeatherTracker,2013-05-16 19:00:00,
2013-05-16 14:05:00,83.5,65.1,30.03,WSW,257,1.0,6.0,54,0.00,,,0.00,WeatherTracker,2013-05-16 19:05:00,
2013-05-16 14:15:00,83.2,63.7,30.02,SSE,166,6.0,8.0,52,0.00,,,0.00,WeatherTracker,2013-05-16 19:15:00,
2013-05-16 14:20:00,83.2,64.8,30.03,WSW,244,5.0,11.0,54,0.00,,,0.00,WeatherTracker,2013-05-16 19:20:00,
2013-05-16 14:25:00,83.7,64.7,30.02,WNW,299,1.0,11.0,53,0.00,,,0.00,WeatherTracker,2013-05-16 19:25:00,
2013-05-16 14:35:00,84.0,64.5,30.02,West,263,8.0,13.0,52,0.00,,,0.00,WeatherTracker,2013-05-16 19:35:00,
2013-05-16 14:45:00,83.9,64.4,30.02,SE,142,2.0,8.0,52,0.00,,,0.00,WeatherTracker,2013-05-16 19:45:00,
2013-05-16 14:50:00,83.6,65.7,30.02,WSW,247,6.0,7.0,55,0.00,,,0.00,WeatherTracker,2013-05-16 19:50:00,
2013-05-16 15:00:00,84.3,64.7,30.01,SW,220,3.0,9.0,52,0.00,,,0.00,WeatherTracker,2013-05-16 20:00:00,
2013-05-16 15:05:00,84.1,65.1,30.01,South,185,3.0,10.0,53,0.00,,,0.00,WeatherTracker,2013-05-16 20:05:00,
2013-05-16 15:15:00,83.3,64.9,30.01,SW,229,4.0,8.0,54,0.00,,,0.00,WeatherTracker,2013-05-16 20:15:00,
2013-05-16 15:20:00,83.3,65.4,30.01,West,266,5.0,7.0,55,0.00,,,0.00,WeatherTracker,2013-05-16 20:20:00,
2013-05-16 15:30:00,83.1,65.2,30.00,SW,222,2.0,8.0,55,0.00,,,0.00,WeatherTracker,2013-05-16 20:30:00,
2013-05-16 15:40:00,83.7,65.8,30.00,WSW,243,3.0,6.0,55,0.00,,,0.00,WeatherTracker,2013-05-16 20:40:00,
2013-05-16 15:45:00,83.8,65.4,30.00,South,188,3.0,7.0,54,0.00,,,0.00,WeatherTracker,2013-05-16 20:45:00,
2013-05-16 15:50:00,84.3,64.7,30.00,West,265,3.0,8.0,52,0.00,,,0.00,WeatherTracker,2013-05-16 20:50:00,
2013-05-16 16:00:00,84.4,63.7,30.00,SSW,192,5.0,9.0,50,0.00,,,0.00,WeatherTracker,2013-05-16 21:00:00,
2013-05-16 16:05:00,83.8,63.7,29.99,SW,215,6.0,8.0,51,0.00,,,0.00,WeatherTracker,2013-05-16 21:05:00,
2013-05-16 16:10:00,83.2,63.7,29.99,SW,219,3.0,7.0,52,0.00,,,0.00,WeatherTracker,2013-05-16 21:10:00,
2013-05-16 16:15:00,83.2,63.7,29.99,SW,225,4.0,7.0,52,0.00,,,0.00,WeatherTracker,2013-05-16 21:15:00,
2013-05-16 16:20:00,83.5,64.5,29.99,South,178,7.0,8.0,53,0.00,,,0.00,WeatherTracker,2013-05-16 21:20:00,
2013-05-16 16:30:00,83.8,63.7,29.99,SSW,194,0.0,7.0,51,0.00,,,0.00,WeatherTracker,2013-05-16 21:30:00,
2013-05-16 16:40:00,84.3,61.8,29.99,SSW,200,6.0,10.0,47,0.00,,,0.00,WeatherTracker,2013-05-16 21:40:00,
2013-05-16 16:45:00,84.0,62.2,29.99,SW,215,6.0,10.0,48,0.00,,,0.00,WeatherTracker,2013-05-16 21:45:00,
2013-05-16 16:50:00,83.3,62.1,29.99,SW,223,4.0,8.0,49,0.00,,,0.00,WeatherTracker,2013-05-16 21:50:00,
2013-05-16 17:00:00,82.4,63.0,29.98,SSW,213,2.0,5.0,52,0.00,,,0.00,WeatherTracker,2013-05-16 22:00:00,
2013-05-16 17:05:00,82.5,63.1,29.98,SW,234,4.0,5.0,52,0.00,,,0.00,WeatherTracker,2013-05-16 22:05:00,
2013-05-16 17:10:00,82.8,63.3,29.98,SW,225,3.0,6.0,52,0.00,,,0.00,WeatherTracker,2013-05-16 22:10:00,
2013-05-16 17:20:00,83.2,63.2,29.98,South,184,4.0,7.0,51,0.00,,,0.00,WeatherTracker,2013-05-16 22:20:00,
2013-05-16 17:25:00,83.3,63.3,29.98,SSE,159,5.0,6.0,51,0.00,,,0.00,WeatherTracker,2013-05-16 22:25:00,
2013-05-16 17:30:00,83.4,63.3,29.97,South,173,4.0,6.0,51,0.00,,,0.00,WeatherTracker,2013-05-16 22:30:00,
2013-05-16 17:40:00,83.2,62.6,29.97,South,185,5.0,9.0,50,0.00,,,0.00,WeatherTracker,2013-05-16 22:40:00,
2013-05-16 17:50:00,82.9,63.4,29.97,SE,140,5.0,8.0,52,0.00,,,0.00,WeatherTracker,2013-05-16 22:50:00,
2013-05-16 18:00:00,82.3,63.4,29.97,South,178,4.0,10.0,53,0.00,,,0.00,WeatherTracker,2013-05-16 23:00:00,
2013-05-16 18:05:00,82.1,63.2,29.97,SSW,200,4.0,10.0,53,0.00,,,0.00,WeatherTracker,2013-05-16 23:05:00,
2013-05-16 18:15:00,81.5,63.2,29.97,SSE,159,1.0,12.0,54,0.00,,,0.00,WeatherTracker,2013-05-16 23:15:00,
2013-05-16 18:20:00,81.2,62.4,29.97,SSW,194,3.0,9.0,53,0.00,,,0.00,WeatherTracker,2013-05-16 23:20:00,
2013-05-16 18:25:00,81.1,62.9,29.97,SE,144,6.0,9.0,54,0.00,,,0.00,WeatherTracker,2013-05-16 23:25:00,
2013-05-16 18:30:00,80.8,62.0,29.97,SSE,162,6.0,9.0,53,0.00,,,0.00,WeatherTracker,2013-05-16 23:30:00,
2013-05-16 18:40:00,80.3,61.0,29.97,South,172,4.0,8.0,52,0.00,,,0.00,WeatherTracker,2013-05-16 23:40:00,
2013-05-16 18:50:00,79.7,60.5,29.97,South,190,3.0,7.0,52,0.00,,,0.00,WeatherTracker,2013-05-16 23:50:00,
2013-05-16 19:00:00,79.2,60.6,29.97,South,182,1.0,6.0,53,0.00,,,0.00,WeatherTracker,2013-05-17 00:00:00,
2013-05-16 19:05:00,78.9,60.8,29.98,SE,142,0.0,6.0,54,0.00,,,0.00,WeatherTracker,2013-05-17 00:05:00,
2013-05-16 19:10:00,78.5,60.4,29.98,South,187,3.0,5.0,54,0.00,,,0.00,WeatherTracker,2013-05-17 00:10:00,
2013-05-16 19:20:00,77.7,60.2,29.98,South,171,0.0,4.0,55,0.00,,,0.00,WeatherTracker,2013-05-17 00:20:00,
2013-05-16 19:25:00,77.3,59.9,29.98,SSW,207,1.0,4.0,55,0.00,,,0.00,WeatherTracker,2013-05-17 00:25:00,
2013-05-16 19:35:00,76.4,60.0,29.99,SSW,196,0.0,4.0,57,0.00,,,0.00,WeatherTracker,2013-05-17 00:35:00,
2013-05-16 19:45:00,75.8,60.0,29.99,SW,233,0.0,1.0,58,0.00,,,0.00,WeatherTracker,2013-05-17 00:45:00,
2013-05-16 19:50:00,75.5,59.7,30.00,SW,233,0.0,1.0,58,0.00,,,0.00,WeatherTracker,2013-05-17 00:50:00,
2013-05-16 20:00:00,74.7,59.9,30.00,SW,229,0.0,1.0,60,0.00,,,0.00,WeatherTracker,2013-05-17 01:00:00,
2013-05-16 20:05:00,74.4,60.1,30.00,SW,229,0.0,0.0,61,0.00,,,0.00,WeatherTracker,2013-05-17 01:05:00,
2013-05-16 20:15:00,73.6,60.2,30.00,SW,229,0.0,2.0,63,0.00,,,0.00,WeatherTracker,2013-05-17 01:15:00,
2013-05-16 20:25:00,72.8,60.3,30.01,SW,226,0.0,3.0,65,0.00,,,0.00,WeatherTracker,2013-05-17 01:25:00,
2013-05-16 20:30:00,72.4,60.4,30.00,SW,223,0.0,3.0,66,0.00,,,0.00,WeatherTracker,2013-05-17 01:30:00,
2013-05-16 20:35:00,72.2,60.6,30.01,SSW,205,0.0,3.0,67,0.00,,,0.00,WeatherTracker,2013-05-17 01:35:00,
2013-05-16 20:40:00,71.9,60.8,30.01,SSW,200,1.0,3.0,68,0.00,,,0.00,WeatherTracker,2013-05-17 01:40:00,
2013-05-16 20:45:00,71.7,61.0,30.01,SSW,197,1.0,3.0,69,0.00,,,0.00,WeatherTracker,2013-05-17 01:45:00,
2013-05-16 20:50:00,71.5,60.8,30.01,SSW,213,2.0,4.0,69,0.00,,,0.00,WeatherTracker,2013-05-17 01:50:00,
2013-05-16 20:55:00,71.3,61.0,30.01,SSW,207,1.0,6.0,70,0.00,,,0.00,WeatherTracker,2013-05-17 01:55:00,
2013-05-16 21:05:00,71.1,61.2,30.02,SSW,213,3.0,6.0,71,0.00,,,0.00,WeatherTracker,2013-05-17 02:05:00,
2013-05-16 21:15:00,70.8,61.3,30.02,SSW,209,2.0,6.0,72,0.00,,,0.00,WeatherTracker,2013-05-17 02:15:00,
2013-05-16 21:25:00,70.5,61.4,30.02,SSE,161,2.0,5.0,73,0.00,,,0.00,WeatherTracker,2013-05-17 02:25:00,
2013-05-16 21:35:00,70.0,61.7,30.02,South,176,5.0,5.0,75,0.00,,,0.00,WeatherTracker,2013-05-17 02:35:00,
2013-05-16 21:40:00,69.8,61.9,30.02,South,181,2.0,5.0,76,0.00,,,0.00,WeatherTracker,2013-05-17 02:40:00,
2013-05-16 21:45:00,69.7,61.8,30.02,SSW,213,2.0,5.0,76,0.00,,,0.00,WeatherTracker,2013-05-17 02:45:00,
2013-05-16 21:50:00,69.7,62.2,30.02,SW,214,3.0,5.0,77,0.00,,,0.00,WeatherTracker,2013-05-17 02:50:00,
2013-05-16 22:00:00,69.5,62.3,30.03,SW,214,1.0,4.0,78,0.00,,,0.00,WeatherTracker,2013-05-17 03:00:00,
2013-05-16 22:10:00,69.3,62.1,30.02,South,170,2.0,5.0,78,0.00,,,0.00,WeatherTracker,2013-05-17 03:10:00,
2013-05-16 22:15:00,69.1,62.3,30.02,SSE,163,0.0,5.0,79,0.00,,,0.00,WeatherTracker,2013-05-17 03:15:00,
2013-05-16 22:20:00,69.0,62.2,30.02,SSE,163,2.0,5.0,79,0.00,,,0.00,WeatherTracker,2013-05-17 03:20:00,
2013-05-16 22:25:00,68.9,62.5,30.02,South,172,4.0,4.0,80,0.00,,,0.00,WeatherTracker,2013-05-17 03:25:00,
2013-05-16 22:30:00,68.8,62.7,30.02,South,184,3.0,4.0,81,0.00,,,0.00,WeatherTracker,2013-05-17 03:30:00,
2013-05-16 22:35:00,68.8,62.7,30.03,SSW,211,2.0,5.0,81,0.00,,,0.00,WeatherTracker,2013-05-17 03:35:00,
2013-05-16 22:45:00,68.6,62.9,30.02,SSW,198,2.0,4.0,82,0.00,,,0.00,WeatherTracker,2013-05-17 03:45:00,
2013-05-16 22:50:00,68.6,62.9,30.02,SSW,200,3.0,4.0,82,0.00,,,0.00,WeatherTracker,2013-05-17 03:50:00,
2013-05-16 22:55:00,68.6,62.9,30.02,SSE,164,2.0,5.0,82,0.00,,,0.00,WeatherTracker,2013-05-17 03:55:00,
2013-05-16 23:00:00,68.5,63.1,30.02,South,169,2.0,5.0,83,0.00,,,0.00,WeatherTracker,2013-05-17 04:00:00,
2013-05-16 23:05:00,68.4,63.4,30.02,SSE,152,4.0,5.0,84,0.00,,,0.00,WeatherTracker,2013-05-17 04:05:00,
2013-05-16 23:10:00,68.3,63.3,30.01,SSE,161,2.0,5.0,84,0.00,,,0.00,WeatherTracker,2013-05-17 04:10:00,
2013-05-16 23:15:00,68.2,63.2,30.02,SSW,200,3.0,5.0,84,0.00,,,0.00,WeatherTracker,2013-05-17 04:15:00,
2013-05-16 23:20:00,68.1,63.4,30.02,SSE,162,2.0,7.0,85,0.00,,,0.00,WeatherTracker,2013-05-17 04:20:00,
2013-05-16 23:25:00,68.1,63.4,30.02,South,174,2.0,7.0,85,0.00,,,0.00,WeatherTracker,2013-05-17 04:25:00,
2013-05-16 23:30:00,68.1,63.4,30.02,SSW,205,2.0,5.0,85,0.00,,,0.00,WeatherTracker,2013-05-17 04:30:00,
2013-05-16 23:35:00,68.0,63.6,30.02,SSW,205,2.0,6.0,86,0.00,,,0.00,WeatherTracker,2013-05-17 04:35:00,
2013-05-16 23:40:00,68.1,63.7,30.03,SSW,212,3.0,6.0,86,0.00,,,0.00,WeatherTracker,2013-05-17 04:40:00,
2013-05-16 23:45:00,68.0,63.6,30.03,SSW,212,0.0,5.0,86,0.00,,,0.00,WeatherTracker,2013-05-17 04:45:00,
2013-05-16 23:55:00,68.0,64.0,30.03,SSW,212,0.0,0.0,87,0.00,,,0.00,WeatherTracker,2013-05-17 04:55:00,